Weather in Dugino

Russia / Smolensk Oblast     55°41′18″N   34°11′30″E
temp.,
°C
wind,
m/s
gust,
m/s
humid.,
%
clouds,
%
prec.,
mm/h
press.,
hPa
HPBL,
m
19 september, sun
sun1900:00+6e81568100 0.0 1020706
03:00+6e71467100 0.0 1020716
06:00+5e71576100 0.6 1019754
09:00+4e81687100 3.2 1019781
12:00+5e91787100 1.9 1018796
15:00+5ene91792100 5.2 1018847
18:00+5ene91793100 4.2 1017926
21:00+4ene91696100 8.1 1017931
20 september, mon
mon2000:00+4ene81696100 2.4 1016910
03:00+4ene81597100 6.3 1016878
06:00+4ene81597100 3.3 1015883
09:00+3ene81597100 4.1 1015731
12:00+3ene81597100 0.4 1016734
15:00+3ene81497100 0.9 1016821
18:00+3ene81497100 0.1 1016831
21:00+3ene81597100 1.8 1016830
21 september, tue
tue2100:00+4ene71497100 2.0 1015826
03:00+4ne71397100 4.1 1014791
06:00+3ne71397100 1.9 1014731
09:00+2ne71398100 6.4 1014595
12:00+3ne61198100 2.9 1014550
15:00+4ne61098100 3.0 1014526
18:00+4nne51098100 0.4 1014538
21:00+3nne5998100 2.4 1014649
22 september, wed
wed2200:00+4nne51098100 0.6 1014515
03:00+4nne5998100 1.1 1014476
06:00+4nne5998100 0.9 1014446
09:00+5nne5997100 1.2 1014483
12:00+6nne5897100 0.3 1015532
15:00+6nne5894100 0.3 1014609
18:00+4nne5798100 1.3 1014711
21:00+4nne4798100 1.8 1013702
23 september, thu
thu2300:00+4n3598100 0.3 1012657
03:00+4n2499100 0.5 1011256
06:00+5n1299100 0.1 1011138
09:00+5s1198100 0.3 1010145
12:00+6s2392100 0.1 1010718
15:00+6ssw3493100 0.2 1009696
18:00+5ssw3694100 0.1 1008601
21:00+5s4695100 0.3 1008776